Location: Unspecified
(0.0000°N, 0.0000°E)
Time: 08:34:23
(UTC+00:00)

Vanguard 1 Rocket - Pass Details

Date: 04 December 2022
Orbit: 651 x 4224 km, 34.3° (Epoch: 04 February)

Event Time Altitude Azimuth Distance (km) Brightness Sun altitude
Rises 00:01:04 0° 234° (SW) 6,986 12.1 -67.6°
Reaches altitude 10° 00:06:32 10° 234° (SW) 5,399 11.4 -67.4°
Enters shadow 00:08:21 14° 234° (SW) 4,846 11.1 -67.4°
